User: anonymous   Login
Location: ?????
(38.3715°N, 23.0573°E)
Time: 21:12:19
(UTC+00:00)
Language:

SJ 16-02 - Orbit

View from above orbital plane
View from above orbital plane
View from above satellite
View from above satellite

Ground track
Ground track

The orbit data is extracted from the following two-line orbital elements,

1 41634U 16043A   24284.56715999  .00007553  00000-0  78069-3 0  9996
2 41634  75.0039 359.9098 0006589  87.5297 272.6644 14.90219962449475
Epoch (UTC): 10 October 2024 13:36:42
Eccentricity: 0.0006589
inclination: 75.0039°
perigee height: 592 km
apogee height: 602 km
right ascension of ascending node: 359.9098°
argument of perigee: 87.5297°
revolutions per day: 14.90219962
mean anomaly at epoch: 272.6644°
orbit number at epoch: 44947

The dashed part of the orbit path shows where the satellite is in the earth's shadow,  

DLR